Regional Weather Roundup
Issued by NWS

Home | Current Version | Previous Version | Graphics & Text | Print | Product List | Glossary Off
Versions: 1 2 3 4 5 6 7 8 9 10 11 12 13 14 15 16 17 18 19 20 21 22 23 24 25 26 27 28 29 30 31 32 33 34 35 36 37 38 39 40 41 42 43 44 45 46 47 48 49 50

000
ASUS43 KDMX 241208
RWRIA

WEATHER ROUNDUP FOR IOWA
NATIONAL WEATHER SERVICE DES MOINES IA
700 AM CDT SUN JUL 24 2016

NOTE: "FAIR" INDICATES FEW OR NO CLOUDS BELOW 12,000 FEET WITH NO
SIGNIFICANT WEATHER AND/OR OBSTRUCTIONS TO VISIBILITY.

* - THESE STATIONS ARE NOT NWS STATIONS...THUS NOT UNDER NWS
QUALITY CONTROL.  THEY ALSO DO NOT REPORT WEATHER SUCH
AS PRECIPITATION OR FOG.

IAZ001>003-012>014-020>022-031>034-043>046-241300-
   NORTHWEST IOWA

CITY           SKY/WX    TMP DP  RH WIND       PRES   REMARKS
CARROLL *      CLEAR     77  75  94 N8        29.88R
CHEROKEE *     CLEAR     71  69  93 N6        29.90R
LE MARS *      CLEAR     68  66  94 N5        29.93R
SHELDON *      CLEAR     68  68 100 NW6       29.92R
SIOUX CITY     CLEAR     73  66  78 NW7       29.90R
6HR MIN TEMP:  72; 6HR MAX TEMP:  82;

SPENCER        CLEAR     69  65  86 NW8       29.91R
6HR MIN TEMP:  68; 6HR MAX TEMP:  78;

STORM LAKE *   CLEAR     72  66  83 N10       29.91R
$$

IAZ055>058-069>071-079>083-090>094-241300-
   SOUTHWEST IOWA

CITY           SKY/WX    TMP DP  RH WIND       PRES   REMARKS
ATLANTIC *     CLOUDY    77  75  94 NW6       29.88R
CLARINDA *       N/A     73  72  94 MISG      29.89R
COUNCIL BLFS * CLEAR     77  75  94 N10       29.90R
CRESTON *      CLEAR     75  73  94 CALM      29.90R
HARLAN  *      CLEAR     77  75  94 N7        29.92R
LAMONI         CLOUDY    77  74  90 S8        29.89R
6HR MIN TEMP:  76; 6HR MAX TEMP:  79;

RED OAK *      CLEAR     75  73  94 CALM      29.88R
SHENANDOAH *   CLOUDY    73  73 100 CALM      29.88R
$$

IAZ047>049-059>061-072>074-084-241300-
   CENTRAL IOWA

CITY           SKY/WX    TMP DP  RH WIND       PRES   REMARKS
AMES           CLEAR     77  76  96 SW3       29.83S
6HR MIN TEMP:  73; 6HR MAX TEMP:  79;

ANKENY *         N/A    N/A N/A N/A MISG        N/A
BOONE *        MOCLDY    77  73  88 W5        29.84R
CHARITON *       N/A    N/A N/A N/A MISG        N/A
DES MOINES     PTCLDY    80  74  81 W5        29.84R HX  85
6HR MIN TEMP:  79; 6HR MAX TEMP:  83;

GRINNELL*      CLEAR     77  73  87 S5        29.86R
KNOXVILLE *    CLEAR     79  73  83 SW9       29.84R HX  82
MARSHALLTOWN   CLEAR     77  76  96 SW3       29.83S
6HR MIN TEMP:  77; 6HR MAX TEMP:  81;

NEWTON *       CLEAR     77  77 100 S6        29.84R
PELLA *        CLEAR     80  73  79 SW5       29.86R HX  84
PERRY *          N/A     74  74  98 CALM      29.85R
$$

IAZ004>006-015-016-023>025-035-036-241300-
   NORTH CENTRAL IOWA

CITY           SKY/WX    TMP DP  RH WIND       PRES   REMARKS
ALGONA *       CLEAR     73  72  94 N6        29.87R
ESTHERVILLE    CLEAR     70  67  90 NW9       29.88R
6HR MIN TEMP:  69; 6HR MAX TEMP:  78;

FORT DODGE *   CLEAR     75  72  88 N6        29.87R
MASON CITY     CLOUDY    77  75  93 NW14      29.85R
6HR MIN TEMP:  73; 6HR MAX TEMP:  78;

FOREST CITY *    N/A     73  72  94 NW9G16    29.85R
IOWA FALLS *     N/A     77  73  88 SW6       29.85R
$$

IAZ007>011-017>019-026>030-037>042-050>054-066-241300-
   NORTHEAST IOWA

CITY           SKY/WX    TMP DP  RH WIND       PRES   REMARKS
CEDAR RAPIDS   SUNNY     79  79 100 S8        29.83S HX  84
6HR MIN TEMP:  78; 6HR MAX TEMP:  80;

CHARLES CITY * SUNNY     77  77 100 SW6       29.82S
CLINTON *      SUNNY     78  76  93 S8        29.86F HX  81
DECORAH *      SUNNY     77  77 100 VRB5      29.81S
DUBUQUE        SUNNY     76  75  97 S10       29.84F
6HR MIN TEMP:  72; 6HR MAX TEMP:  76;

MONTICELLO *   SUNNY     79  77  94 S7        29.83S HX  83
OELWEIN *      MOSUNNY   77  75  94 SW8       29.84R
WATERLOO       SUNNY     78  74  87 SW7       29.81R HX  81
6HR MIN TEMP:  76; 6HR MAX TEMP:  78;

$$

IAZ064-065-067-068-078-241300-
   EAST CENTRAL IOWA

CITY           SKY/WX    TMP DP  RH WIND       PRES   REMARKS
DAVENPORT      SUNNY     79  75  87 S8        29.86F HX  83
6HR MIN TEMP:  77; 6HR MAX TEMP:  81;

IOWA CITY      SUNNY     80  77  90 S7        29.85F HX  87
6HR MIN TEMP:  78; 6HR MAX TEMP:  82;

MT. PLEASANT * SUNNY     80  80 100 S7        29.87R HX  86
MUSCATINE *    SUNNY     79  75  89 S7        29.85S HX  82
QUAD CITIES    SUNNY     81  75  82 S8        29.85S HX  87
6HR MIN TEMP:  79; 6HR MAX TEMP:  82;

$$

IAZ062-063-075>077-085>089-095>099-241300-
   SOUTHEAST IOWA

CITY           SKY/WX    TMP DP  RH WIND       PRES   REMARKS
BURLINGTON     SUNNY     78  77  96 S9        29.88R HX  81
6HR MIN TEMP:  77; 6HR MAX TEMP:  82;

FAIRFIELD *    SUNNY     79  77  94 S7        29.86R HX  83
KEOKUK *       SUNNY     79  77  94 SW7       29.87R FOG     HX  83
CENTERVILLE *    N/A     81  73  78 CALM      29.90R HX  85
OTTUMWA        CLOUDY    79  74  84 S9        29.85R HX  82
6HR MIN TEMP:  78; 6HR MAX TEMP:  81;

WASHINGTON *   SUNNY     79  77  94 S9        29.86S HX  83
$$

ABBREVIATIONS USED IN REMARKS
   TC - TEMPERATURES IN CELSIUS
  WCI - WIND CHILL INDEX
   HX - HEAT INDEX
  VSB - VISIBILITY
$$




USA.gov is the U.S. government's official web portal to all federal, state and local government web resources and services.